Weather History for Herat, Afghanistan

Change the Weather History Date:

Sunday, June 8, 2014

  Actual Average Record
Temperature  
Mean Temperature 80 °F -  
Max Temperature 95 °F 96 °F - ()
Min Temperature 64 °F 66 °F - ()
Cooling Degree Days 14    
Growing Degree Days 30 (Base 50)    
Moisture  
Dew Point 29 °F    
Average Humidity 17    
Maximum Humidity 32    
Minimum Humidity 9    
Precipitation  
Precipitation 0.00 in 0.00 in - ()
Sea Level Pressure  
Sea Level Pressure 29.95 in    
Wind  
Wind Speed 5 mph ()    
Max Wind Speed 18 mph    
Max Gust Speed 26 mph    
T = Trace of Precipitation, MM = Missing Value Source: Averaged Metar Reports

Daily Weather History Graph

Daily Weather History Graph

Search for Another Location

Airport:

Trip Planner

Search our weather history database for the weather conditions in past years. The results will help you decide how hot, cold, wet, or windy it might be!

Date:

Astronomy

Jun. 08, 2014 Rise Set
Actual Time 5:08 AM AFT 7:31 PM AFT
Civil Twilight 4:39 AM AFT 8:00 PM AFT
Nautical Twilight 4:04 AM AFT 8:36 PM AFT
Astronomical Twilight 3:25 AM AFT 9:15 PM AFT
Moon 2:35 PM AFT (6/8) 1:35 AM AFT (6/8)
Length of Visible Light 15h 20m
Length of Day
14h 22m
Waxing Gibbous, 73% of the Moon is Illuminated
Jun 8
Waxing Gibbous
Jun 13
Full
Jun 19
Last Quarter
Jun 27
New
Jul 5
First Quarter

Hourly Weather History & Observations

Time (AFT) Temp. Dew Point Humidity Pressure Visibility Wind Dir Wind Speed Gust Speed Precip Events Conditions
12:24 AM 71.6 °F 28.4 °F 20% 29.95 in - SSE 3.5 mph - N/A   Unknown
1:24 AM 71.6 °F 28.4 °F 20% 29.95 in - Variable 2.3 mph - N/A   Unknown
2:25 AM 69.8 °F 30.2 °F 23% 29.95 in - SSE 2.3 mph - N/A   Unknown
3:25 AM 68.0 °F 32.0 °F 26% 29.95 in - SSE 3.5 mph - N/A   Unknown
4:24 AM 66.2 °F 32.0 °F 28% 29.95 in - NE 2.3 mph - N/A   Unknown
5:25 AM 64.4 °F 33.8 °F 32% 29.95 in - SSE 3.5 mph - N/A   Unknown
6:24 AM 66.2 °F 33.8 °F 30% 29.95 in - East 3.5 mph - N/A   Clear
7:24 AM 73.4 °F 37.4 °F 27% 29.98 in - NNE 4.6 mph - N/A   Clear
8:25 AM 80.6 °F 35.6 °F 20% 29.98 in - North 4.6 mph - N/A   Clear
9:24 AM 84.2 °F 35.6 °F 18% 29.98 in - North 4.6 mph - N/A   Clear
10:25 AM 89.6 °F 37.4 °F 16% 29.98 in - NNE 5.8 mph - N/A   Clear
11:25 AM 93.2 °F 30.2 °F 11% 29.98 in - NNE 11.5 mph - N/A   Clear
12:25 PM 95.0 °F 26.6 °F 9% 29.95 in - NNE 12.7 mph - N/A   Clear
1:25 PM 95.0 °F 26.6 °F 9% 29.95 in - NNE 13.8 mph 26.5 mph N/A   Clear
2:25 PM 95.0 °F 26.6 °F 9% 29.95 in - NNE 16.1 mph - N/A   Clear
3:25 PM 95.0 °F 26.6 °F 9% 29.95 in - NE 10.4 mph 24.2 mph N/A   Clear
4:25 PM 93.2 °F 24.8 °F 9% 29.92 in - NNE 18.4 mph - N/A   Clear
5:25 PM 91.4 °F 26.6 °F 10% 29.92 in - NNE 15.0 mph - N/A   Unknown
6:25 PM 89.6 °F 24.8 °F 10% 29.92 in - NNE 12.7 mph - N/A   Clear
7:25 PM 84.2 °F 26.6 °F 12% 29.95 in - North - - N/A   Clear
8:24 PM 80.6 °F 24.8 °F 13% 29.95 in - ENE 4.6 mph - N/A   Clear
9:24 PM 77.0 °F 23.0 °F 13% 29.95 in - East 2.3 mph - N/A   Clear
10:24 PM 75.2 °F 21.2 °F 13% 29.95 in - East 3.5 mph - N/A   Clear
11:25 PM 73.4 °F 19.4 °F 13% 29.98 in - SW 1.2 mph - N/A   Clear